Location: Unspecified
(31.3594°N, 0.0000°E)
Time: 01:13:21
(UTC+00:00)

SRMSAT - Visible Passes

Search period start: 04 April 2026 00:00
Search period end: 14 April 2026 00:00
Orbit: 845 x 863 km, 20.0° (Epoch: 28 March)

Date Brightness Start Highest point End Pass type
(mag) Time Alt. Az. Time Alt. Az. Time Alt. Az.
4 Apr ? 03:29:16 22° SSE 03:29:16 22° SSE 03:32:12 10° SE visible
4 Apr ? 05:11:49 10° WSW 05:15:54 19° SSW 05:19:59 10° SSE visible
5 Apr ? 03:16:16 18° SE 03:16:16 18° SE 03:18:09 10° SE visible
5 Apr ? 04:58:12 11° SW 05:01:52 18° SSW 05:05:44 10° SSE visible
6 Apr ? 03:03:18 13° SE 03:03:18 13° SE 03:04:05 10° SE visible
6 Apr ? 04:45:14 13° SW 04:47:50 17° SSW 04:51:27 10° SSE visible
7 Apr ? 04:32:19 14° SSW 04:33:48 15° SSW 04:37:07 10° SSE visible
8 Apr ? 04:19:28 14° SSW 04:19:46 14° SSW 04:22:42 10° SSE visible
9 Apr ? 04:06:39 12° S 04:06:39 12° S 04:08:12 10° S visible
11 Apr ? 20:06:31 10° SSW 20:08:01 13° S 20:08:01 13° S visible
12 Apr ? 19:52:05 10° SSW 19:55:18 16° SSE 19:55:18 16° SSE visible
13 Apr ? 19:37:44 10° SSW 19:41:27 17° SSE 19:42:33 16° SSE visible
